This demonstration page uses our WeatherBlox Daily Observations layout. Learn more.

Left ArrowRight Arrow

Hourly Observations for January 15, 2016

Temp ( °F °C ) Dew Point ( °F °C ) Humidity (%) Winds ( mph kmh ) Pressure ( in mb ) Visibility ( mi km ) Precip ( " mm )
12:59 am 00:59 Clear 47 8.3 29 -1.7 50 50 SW 8 13 30.03 1017 10 16 0.00 0.00
1:59 am 01:59 Clear 48 8.9 30 -1.1 50 50 SW 9 15 30.02 1017 10 16 0.00 0.00
2:59 am 02:59 Clear 46 7.8 30 -1.1 54 54 SW 7 11 30.02 1017 10 16 0.00 0.00
3:59 am 03:59 Mostly Clear 44 6.7 30 -1.1 58 58 S 6 9 30.01 1016 10 16 0.00 0.00
4:59 am 04:59 Partly Cloudy 43 6.1 30 -1.1 60 60 SSW 7 11 30.00 1016 10 16 0.00 0.00
5:59 am 05:59 Mostly Clear 43 6.1 30 -1.1 60 60 SSW 10 17 30.01 1016 10 16 0.00 0.00
6:59 am 06:59 Partly Cloudy 41 5 30 -1.1 65 65 S 5 7 30.00 1016 10 16 0.00 0.00
7:59 am 07:59 Partly Cloudy 41 5 31 -0.6 67 67 SSE 7 11 29.99 1016 10 16 0.00 0.00
8:54 am 08:54 Mostly Cloudy 45 7 32 0 61 61 S 6 9 30.00 1016 10 16 0.00 0.00
8:59 am 08:59 Mostly Cloudy 46 7.8 33 0.6 61 61 S 5 7 29.99 1016 10 16 0.00 0.00
9:59 am 09:59 Mostly Cloudy 50 10 34 1.1 54 54 S 6 9 29.97 1015 10 16 0.00 0.00
10:59 am 10:59 Mostly Cloudy 52 11.1 33 0.6 49 49 SSW 10 17 29.96 1015 10 16 0.00 0.00
11:59 am 11:59 Mostly Cloudy 56 13.3 34 1.1 44 44 S 9 15 29.90 1012 10 16 0.00 0.00
12:59 pm 12:59 Cloudy 59 15 31 -0.6 35 35 S 5 7 29.82 1010 10 16 0.00 0.00
1:59 pm 13:59 Cloudy 59 15 30 -1.1 33 33 SE 7 11 29.77 1008 10 16 0.00 0.00
2:59 pm 14:59 Cloudy 57 13.9 29 -1.7 34 34 SE 8 13 29.78 1008 10 16 0.00 0.00
3:59 pm 15:59 Cloudy 55 12.8 31 -0.6 40 40 SE 8 13 29.74 1007 10 16 0.00 0.00
4:59 pm 16:59 Cloudy with Light Rain 49 9.4 39 3.9 69 69 SE 7 11 29.70 1006 6 10 0.02 0.51
5:59 pm 17:59 Mostly Cloudy with Light Rain 51 10.6 47 8.3 86 86 ESE 23 37 29.52 1000 6 10 0.12 3.05
6:59 pm 18:59 Mostly Cloudy 55 12.8 49 9.4 80 80 E 6 9 29.49 999 8 13 0.01 0.25
7:21 pm 19:21 Mostly Cloudy 53 11.7 49 9.4 86 86 N 7 11 29.47 998 8 13 0.00 0.00
7:59 pm 19:59 Cloudy with Rain 52 11.1 50 10 93 93 NNE 12 19 29.44 997 3 5 0.22 5.59
8:12 pm 20:12 Cloudy with Rain 52 11.1 50 10 93 93 NE 10 17 29.44 997 2 2 0.16 4.06
8:50 pm 20:50 Cloudy with Heavy Rain 50 10 48 8.9 93 93 NNE 18 30 29.35 994 1 1 0.61 15.49
8:59 pm 20:59 Cloudy with Rain 50 10 48 8.9 93 93 N 17 28 29.36 994 2 2 0.63 16.00
9:39 pm 21:39 Cloudy with Mist and Fog 50 10 48 8.9 93 93 NNE 16 26 29.29 992 6 10 0.10 2.54
9:59 pm 21:59 Cloudy with Mist and Fog 50 10 48 8.9 93 93 N 17 28 29.29 992 6 10 0.10 2.54
10:59 pm 22:59 Cloudy with Mist and Fog 49 9.4 46 7.8 90 90 N 21 33 29.28 992 6 10 0.02 0.51
11:36 pm 23:36 Cloudy with Mist and Fog 48 8.9 46 7.8 93 93 NNW 22 35 29.29 992 6 10 0.00 0.03
11:59 pm 23:59 Cloudy with Mist and Fog 49 9.4 46 7.8 90 90 NNW 20 31 29.31 993 6 10 0.00 0.03

Powered by AerisWeather